Regional Weather Roundup
Issued by NWS

Home | Current Version | Previous Version | Text Only | Print | Product List | Glossary Off
Versions: 1 2 3 4 5 6 7 8 9 10 11 12 13 14 15 16 17 18 19 20 21 22 23 24 25 26 27 28 29 30 31 32 33 34 35 36 37 38 39 40 41 42 43 44 45 46 47 48 49 50

000
ASUS43 KMPX 070310
RWRMN
WEATHER ROUNDUP FOR MINNESOTA
NATIONAL WEATHER SERVICE TWIN CITIES/CHANHASSEN MN
1000 PM CDT WED MAY 06 2015


NOTE: "FAIR" INDICATES FEW OR NO CLOUDS BELOW 12,000 FEET WITH NO
SIGNIFICANT WEATHER AND/OR OBSTRUCTIONS TO VISIBILITY. N/A MEANS
CURRENT SKY AND/OR WEATHER CONDITIONS ARE NOT AVAILABLE.

MNZ060>063-068>070-070400-
   Twin Cities Metro

CITY           SKY/WX    TMP DP  RH WIND       PRES   REMARKS
TWIN CITIES    MOCLDY    67  61  81 SE10      29.87R
ST PAUL        MOCLDY    66  61  84 SE15      29.88R
CRYSTAL        PTCLDY    69  60  73 SE12      29.85R
BLAINE         PTCLDY    68  61  77 SE12      29.87R
LAKEVILLE      PTCLDY    64  61  88 SE9       29.88R
EDEN PRAIRIE   PTCLDY    68  60  75 SE12      29.85R
SOUTH ST PAUL  PTCLDY    66  61  82 SE7       29.88R
LAKE ELMO      MOCLDY    64  61  88 SE12      29.90R
$$
MNZ001>005-007-008-013>017-022>024-027-028-070400-
   Northwest Minnesota

CITY           SKY/WX    TMP DP  RH WIND       PRES   REMARKS
BEMIDJI        CLOUDY    60  57  88 SE10      29.78S
HALLOCK        CLOUDY    61  59  94 E9        29.70F
ROSEAU         LGT RAIN  61  55  82 E10       29.76F
WARROAD        RAIN      59  55  88 E12       29.79F
THIEF RVR FALL CLOUDY    63  57  82 SE17      29.72S
CROOKSTON      CLOUDY    64  59  82 SE17      29.70R
FOSSTON        CLOUDY    61  57  88 SE12G20   29.74S
DETROIT LAKES  CLOUDY    63  61  94 SE13      29.75R
MOORHEAD       LGT RAIN  64  61  88 SE12      29.69S
PARK RAPIDS    RAIN      63  60  90 SE13      29.78R FOG
MAHNOMEN       CLOUDY    63  59  88 SE16G23   29.73R
$$
MNZ006-009>011-018-025>026-070400-
   North Central Minnesota

CITY           SKY/WX    TMP DP  RH WIND       PRES   REMARKS
BAUDETTE       LGT RAIN  59  56  89 SE13      29.81S
FLAG ISLAND    CLOUDY    59  57  94 E13G21    29.79S
INTL FALLS     LGT RAIN  63  53  70 SE10      29.87R
WASKISH        CLOUDY    61  55  82 E12       29.80S
BIG FORK       DRIZZLE   61  55  82 SE10G16   29.85F
LONGVILLE      MOCLDY    57  55  94 SE6       29.82S
GRAND RAPIDS   MOCLDY    57  52  82 SE8       29.87F
CRANE LAKE     CLOUDY    59  52  77 CALM      29.91S
ORR            CLOUDY    59  52  77 SE8       29.87R
COOK           CLOUDY    57  54  88 E3        29.89F
WALKER         LGT RAIN  59  57  92 SE8       29.79S
$$
MNZ012-019>021-037-070400-
   Northeast Minnesota

CITY           SKY/WX    TMP DP  RH WIND       PRES   REMARKS
DULUTH         CLOUDY    57  44  62 E12       29.92F
ELY            CLOUDY    55  46  71 SE8       29.93F
HIBBING        CLOUDY    59  50  72 SE10      29.89S
EVELETH        CLOUDY    57  50  77 E8        29.91F
DULUTH HARBOR    N/A     43  37  81 E10       29.95F
TWO HARBORS    CLOUDY    57  37  47 NE9       29.93F
SILVER BAY     CLOUDY    57  28  33 NE7       29.95F
GRAND MARAIS     N/A     45  35  68 NE8       29.99S
G MARAIS ARPRT CLOUDY    57  36  44 E6        30.02S
$$
MNZ029>031-032-039>041-046>048-054>057-064-070400-
   West Central Minnesota

CITY           SKY/WX    TMP DP  RH WIND       PRES   REMARKS
FERGUS FALLS   PTCLDY    64  61  88 S17G23    29.73R
WHEATON        PTCLDY    63  57  82 SE13      29.72R
MORRIS         CLOUDY    64  61  88 SE14      29.73S
ALEXANDRIA     PTCLDY    63  59  87 SE12      29.78R
ELBOW LAKE     MOCLDY    63  59  88 S15       29.74R
WADENA         CLOUDY    63  61  94 SE9       29.77R
GLENWOOD       PTCLDY    63  59  88 SE10      29.79R
APPLETON       MOCLDY    68  59  73 SE10      29.73S
BENSON         MOCLDY    66  55  68 S7        29.75
ORTONVILLE     MOCLDY    66  57  72 SE8       29.72R
MADISON        PTCLDY    64  59  82 S9        29.73R
WILLMAR        FAIR      66  61  82 SE12      29.79S
$$
MNZ033>034-036-042>043-049>051-058-059-070400-
   Central Minnesota

CITY           SKY/WX    TMP DP  RH WIND       PRES   REMARKS
ST CLOUD       CLOUDY    66  61  84 SE10      29.82R
SAUK CENTRE    CLOUDY    65  60  83 SE10      29.80R
PAYNESVILLE    CLOUDY    64  59  85 E6        29.81R
AITKIN         MOCLDY    57  52  82 E6        29.84S
PINE RIVER     CLOUDY    61  59  94 SE10      29.85R
BRAINERD       MOCLDY    63  59  87 SE9       29.83R
STAPLES        CLOUDY    63  61  94 SE10      29.79R
LONG PRAIRIE   CLOUDY    64  61  88 SE10      29.81R
LITTLE FALLS   CLOUDY    63  59  88 SE3       29.82R
LITCHFIELD     CLOUDY    66  64  94 SE9       29.82R
BUFFALO        MOCLDY    67  60  77 SE12      29.84S
MAPLE LAKE     CLOUDY    67  64  87 SE5       29.84R
$$
MNZ037-044-045-052-053-070400-
   East Central Minnesota

CITY           SKY/WX    TMP DP  RH WIND       PRES   REMARKS
PRINCETON      MOCLDY    66  61  82 SE9       29.85R
MORA           MOCLDY    64  57  77 SE10      29.88S
CAMBRIDGE      MOCLDY    68  55  64 SE7       29.85R
RUSH CITY      MOCLDY    66  58  75 SE12G17   29.88S
MOOSE LAKE     CLOUDY    52  37  58 NE3       29.88S
HINCKLEY       MOCLDY    68  59  73 SE9G17    29.88S
CLOQUET        CLOUDY    52  37  58 E8        29.92S
MCGREGOR       PTCLDY    50  46  87 E7        29.88S
$$
MNZ071>073-080-081-089-090-097-098-070400-
   Southwest Minnesota

CITY           SKY/WX    TMP DP  RH WIND       PRES   REMARKS
MONTEVIDEO     CLOUDY    68  59  73 S13       29.75F
GRANITE FALLS  CLOUDY    68  59  73 SE14      29.77S
CANBY          CLEAR     66  59  77 SE13G18   29.74R
MARSHALL       MOCLDY    66  57  72 S14       29.74S
REDWOOD FALLS  PTCLDY    67  60  78 SE15      29.77F
OLIVIA         PTCLDY    66  59  77 SE12      29.77F
PIPESTONE      PTCLDY    64  57  77 SE15G22   29.73F
WINDOM         PTCLDY    66  57  72 SE14G21   29.79S
WORTHINGTON    MOCLDY    64  55  72 SE16      29.77S
JACKSON        PTCLDY    66  55  68 SE17      29.80F
TRACY          MOCLDY    68  59  72 SE13      29.76S
SLAYTON        MOCLDY    64  59  83 SE17      29.77S
$$
MNZ065>067-074>077-082>085-091>093-070400-
   South Central Minnesota

CITY           SKY/WX    TMP DP  RH WIND       PRES   REMARKS
MANKATO        MOCLDY    70  57  64 S17G24    29.85R
NEW ULM        MOCLDY    66  59  77 SE14      29.81S
ST JAMES       PTCLDY    68  57  68 SE20G25   29.81F
FAIRMONT       PTCLDY    66  36  32 SE16      29.82F
GLENCOE        MOCLDY    69  64  83 SE10      29.82S
FARIBAULT      MOCLDY    70  59  68 SE12G21   29.88R
OWATONNA       MOCLDY    68  61  77 SE14      29.89R
WASECA         MOCLDY    68  54  60 SE13      29.89R
ALBERT LEA     MOCLDY    66  57  72 SE15      29.89S
$$
MNZ078>079-086>088-094>096-070400-
   Southeast Minnesota

CITY           SKY/WX    TMP DP  RH WIND       PRES   REMARKS
ROCHESTER      PTCLDY    64  59  83 S13       29.94R
RED WING       MOCLDY    64  61  88 SE9       29.90R
STANTON        MOCLDY    69  60  74 SE14      29.88R
DODGE CENTER   MOCLDY    64  61  88 S15       29.91S
WINONA         MOCLDY    63  59  88 SE7       29.95R
AUSTIN         CLOUDY    64  59  82 SE8       29.91R
PRESTON        PTCLDY    64  58  82 S9        29.95R
$$
ABBREVIATIONS USED IN REMARKS
   TC - TEMPERATURES IN CELSIUS
  WCI - WIND CHILL INDEX
   HX - HEAT INDEX
  VSB - VISIBILITY
$$


USA.gov is the U.S. government's official web portal to all federal, state and local government web resources and services.